#timestamp,LO_Frequency,Hit,StdDev 
1458198015.3,286047000.9,N
1458198035.2,286046998.8,N
1458198055.9,286046997.0,N
1458198075.7,286046996.0,N
1458198095.5,286046994.9,N
1458198115.4,286046999.6,N
1458198135.2,286046995.5,N
1458198155.0,286046997.9,N
1458198155.9,286046997.9,N
1458198175.8,286047000.3,N
1458198195.6,286047001.2,N
1458198215.4,286046998.0,N
1458198235.3,286046993.8,N
1458198255.1,286046992.3,Y
1458198275.8,286046994.6,P
1458198295.7,286046991.7,P
1458198315.5,286046996.2,N
1458198335.3,286046994.8,N
1458198355.2,286046993.7,N
1458198375.9,286046995.0,N
1458198395.7,286046999.4,N
1458198415.6,286046997.3,N
1458198435.4,286046993.4,N
1458198455.2,286046992.0,Y
1458198475.1,286046997.8,P
1458198476.0,286046997.8,N
1458198495.8,286046999.0,N
1458198515.6,286046997.3,N
1458198535.5,286047000.0,N
1458198555.3,286047004.4,Y
1458198575.1,286047006.7,P
1458198595.9,286047002.6,N
1458198615.7,286046998.4,N
1458198635.5,286047000.5,N
1458198655.3,286047000.6,N
1458198675.2,286047001.2,N
1458198695.0,286047002.8,N
1458198695.9,286047002.8,N
1458198715.7,286046999.5,N
1458198735.6,286046996.9,N
1458198755.4,286047002.0,N
1458198775.2,286047000.5,N
1458198795.1,286046996.9,N
1458198796.0,286046996.9,N
1458198815.8,286046999.5,N
1458198835.6,286046993.5,N
1458198855.5,286046993.8,N
1458198875.3,286046995.4,N
1458198895.1,286046995.0,N
1458198915.9,286046995.8,N
1458198935.7,286046995.9,N
1458198955.5,286046996.1,N
1458198975.3,286046994.4,N
1458198995.2,286046992.0,N
1458199015.0,286046994.3,N
1458199015.9,286046994.3,N
1458199035.7,286046990.2,N
1458199055.6,286046995.4,N
1458199075.4,286046997.1,N
1458199095.2,286047002.0,N
1458199115.1,286046999.2,N
1458199116.0,286046999.2,N
1458199135.8,286046997.3,N
1458199155.6,286046998.4,N
1458199175.5,286047000.1,N
1458199195.3,286047000.7,N
1458199215.1,286046999.7,N
1458199235.9,286047003.7,N
1458199255.7,286047004.1,N
1458199275.5,286047005.0,N
1458199295.4,286047005.1,N
1458199315.2,286047005.3,N
1458199335.0,286047004.1,N
1458199335.9,286047004.1,N
1458199355.8,286047001.5,N
1458199375.6,286047002.3,N
1458199395.4,286046999.1,N
1458199415.2,286046998.7,N
1458199435.1,286047004.1,N
1458199436.0,286047004.1,N
1458199455.8,286047000.5,N
1458199475.6,286047002.8,N
1458199495.5,286047002.4,N
1458199515.3,286047000.2,N
1458199535.1,286047002.5,N
1458199555.9,286047007.4,N
1458199575.7,286047012.4,Y
1458199595.5,286047008.6,P
1458199615.4,286047010.7,N
1458199635.2,286047006.6,N
1458199655.0,286047005.7,N
1458199655.9,286047005.7,N
1458199675.8,286047005.3,N
1458199695.6,286047004.0,N
1458199715.4,286047002.5,N
1458199735.3,286046999.7,N
1458199755.1,286047004.0,N
1458199756.0,286047004.0,N
1458199775.8,286047004.5,N
1458199795.7,286047004.2,N
1458199815.5,286046999.7,N
1458199835.3,286046999.9,N
1458199855.1,286046996.6,N
1458199875.9,286046996.7,N
1458199895.7,286046998.5,N
1458199915.5,286046998.8,N
1458199935.4,286046999.9,N
1458199955.2,286046998.7,N
1458199975.0,286047000.0,N
1458199975.9,286047000.0,N
1458199995.8,286047002.8,N
1458200015.6,286046998.8,N
1458200035.4,286046995.5,N
1458200055.3,286047001.1,N
1458200075.1,286046999.3,N
1458200076.0,286046999.3,N
1458200095.8,286046999.4,N
1458200115.7,286047000.2,N
1458200135.5,286047004.4,N
1458200155.3,286047006.6,N
1458200175.2,286047009.0,Y
1458200195.9,286047009.6,P
1458200215.7,286047012.9,P
1458200235.6,286047017.7,P
1458200255.4,286047019.7,Y
1458200275.2,286047006.4,P
1458200295.1,286047005.1,N
1458200296.0,286047005.1,N
1458200315.8,286047007.8,Y
1458200335.6,286047004.2,P
1458200355.5,286047002.0,N
1458200375.3,286047004.2,N
1458200395.1,286047003.9,N
1458200415.9,286047004.4,N
1458200435.7,286047005.7,Y
1458200455.5,286047000.5,P
1458200475.4,286047000.8,N
1458200495.2,286047001.2,N
1458200515.0,286047002.1,N
1458200515.9,286047002.1,N
1458200535.8,286047001.5,N
1458200555.6,286047000.8,N
1458200575.4,286046997.7,N
1458200595.2,286046996.1,N
1458200615.1,286046993.0,Y
1458200616.0,286046993.0,P
1458200635.8,286046990.6,N
1458200655.6,286046993.0,N
1458200675.5,286046989.5,N
1458200695.3,286046987.4,Y
1458200715.2,286046995.7,P
1458200735.9,286046996.3,P
1458200755.7,286046993.7,P
1458200775.6,286046992.8,Y
1458200795.4,286046993.8,P
1458200815.2,286046992.4,P
1458200835.0,286046989.3,P
1458200836.0,286046989.3,Y
1458200855.8,286046997.9,P
1458200875.6,286046998.8,N
1458200895.4,286046995.4,N
1458200915.3,286046994.7,N
1458200935.1,286046994.0,N
1458200955.8,286046994.5,N
1458200975.7,286046993.0,Y
1458200995.5,286046995.8,P
1458201015.3,286046995.9,P
1458201035.2,286046995.6,P
1458201055.0,286046996.6,Y
1458201055.9,286046996.6,P
1458201075.8,286047000.2,N
1458201095.6,286046998.1,N
1458201115.4,286047001.6,N
1458201135.2,286047000.0,N
1458201155.1,286047004.0,N
1458201156.0,286047004.0,N
1458201175.8,286047003.3,N
1458201195.6,286047001.9,N
1458201215.5,286047004.2,N
1458201235.3,286047004.7,N
1458201255.1,286047004.8,N
1458201275.9,286047005.1,N
1458201295.7,286047002.2,N
1458201315.5,286046999.8,N
1458201335.4,286047001.3,N
1458201355.2,286047001.7,N
1458201375.0,286047001.3,N
1458201375.9,286047001.3,N
1458201395.7,286047007.2,N
1458201415.6,286047012.4,Y
1458201435.4,286047008.9,P
1458201455.2,286047010.5,N
1458201475.1,286047009.9,N
1458201476.0,286047009.9,N
1458201495.8,286047008.6,N
1458201515.6,286047008.2,N
1458201535.5,286047006.2,N
1458201555.3,286047009.5,Y
1458201575.1,286047006.0,P
1458201595.9,286047001.4,N
